Regional Weather Roundup
Issued by NWS

Home | Current Version | Previous Version | Graphics & Text | Print | Product List | Glossary Off
Versions: 1 2 3 4 5 6 7 8 9 10 11 12 13 14 15 16 17 18 19 20 21 22 23 24 25 26 27 28 29 30 31 32 33 34 35 36 37 38 39 40 41 42 43 44 45 46 47 48 49 50

000
ASUS43 KMPX 280401
RWRMN
WEATHER ROUNDUP FOR MINNESOTA
NATIONAL WEATHER SERVICE TWIN CITIES/CHANHASSEN MN
1000 PM CST THU NOV 27 2014


NOTE: "FAIR" INDICATES FEW OR NO CLOUDS BELOW 12,000 FEET WITH NO
SIGNIFICANT WEATHER AND/OR OBSTRUCTIONS TO VISIBILITY. N/A MEANS
CURRENT SKY AND/OR WEATHER CONDITIONS ARE NOT AVAILABLE.

MNZ060>063-068>070-280500-
   Twin Cities Metro

CITY           SKY/WX    TMP DP  RH WIND       PRES   REMARKS
TWIN CITIES    CLOUDY     6  -4  63 SE7       30.32S WCI  -6
ST PAUL        CLOUDY     8  -2  63 SE8       30.35R WCI  -4
CRYSTAL        CLOUDY    10  -2  58 S9        30.30F WCI  -3
BLAINE         CLOUDY    10   1  67 SE6       30.30R WCI   1
LAKEVILLE      MOCLDY     3  -2  78 S5        30.31R WCI  -6
EDEN PRAIRIE   CLOUDY     7  -4  60 S8        30.30S WCI  -6
SOUTH ST PAUL  CLOUDY     8  -2  64 S3        30.32S
LAKE ELMO      CLOUDY     9   1  72 S5        30.32S WCI   0
$$
MNZ001>005-007-008-013>017-022>024-027-028-280500-
   Northwest Minnesota

CITY           SKY/WX    TMP DP  RH WIND       PRES   REMARKS
BEMIDJI        CLOUDY     7  -3  64 S8        30.16F WCI  -6
HALLOCK        CLOUDY     7   1  78 SE7       30.18S WCI  -5
ROSEAU         CLOUDY     7  -2  66 S6        30.17F WCI  -3
WARROAD        CLOUDY     3  -2  78 S7        30.17F WCI  -9
THIEF RVR FALL MOCLDY     7   5  92 SE7       30.15F WCI  -5
CROOKSTON      CLOUDY     9   5  85 S10       30.17F WCI  -6
FOSSTON        LGT SNOW   7   1  78 SE10      30.14F WCI  -8
DETROIT LAKES  LGT SNOW   9   5  85 SE10      30.16F WCI  -6
MOORHEAD       LGT SNOW   9   7  92 SE13      30.17F WCI  -7
PARK RAPIDS    CLOUDY     6  -4  63 S8        30.18F WCI  -7
MAHNOMEN       LGT SNOW   8   1  71 S9        30.16F WCI  -5
$$
MNZ006-009>011-018-025>026-280500-
   North Central Minnesota

CITY           SKY/WX    TMP DP  RH WIND       PRES   REMARKS
BAUDETTE       MOCLDY     2  -5  72 SE3       30.17F
FLAG ISLAND    MOCLDY     3  -4  72 S14       30.17F WCI -15
INTL FALLS     MOCLDY     1  -6  72 CALM      30.21F
WASKISH        CLOUDY     5   0  78 CALM      30.17F
BIG FORK       MOCLDY     5  -4  66 S3        30.19F
LONGVILLE      CLOUDY     7  -6  56 S6        30.20F WCI  -3
GRAND RAPIDS   CLOUDY     5  -4  66 SE6       30.19F WCI  -6
CRANE LAKE     MOCLDY    -2  -6  84 CALM      30.24F
ORR            PTCLDY     1  -8  66 CALM      30.18F
COOK           PTCLDY     0  -6  78 CALM      30.21F
WALKER         CLOUDY     6  -5  59 S8        30.19F WCI  -7
$$
MNZ012-019>021-037-280500-
   Northeast Minnesota

CITY           SKY/WX    TMP DP  RH WIND       PRES   REMARKS
DULUTH         CLOUDY     5  -5  63 SW9       30.23R WCI  -9
ELY            MOCLDY    -6  -8  92 CALM      30.21F
HIBBING        MOCLDY     4  -6  63 CALM      30.21F
EVELETH        PTCLDY     3  -4  72 CALM      30.22F
DULUTH HARBOR  MOCLDY     7  -2  66 CALM      30.33R
TWO HARBORS    PTCLDY     7  -4  61 NW3       30.24S
SILVER BAY     MOCLDY     3  -2  78 CALM      30.24F
GRAND MARAIS     N/A      8  -5  55 NW6       30.30F WCI  -2
G MARAIS ARPRT MOCLDY    -2  -9  71 W3        30.18F
$$
MNZ029>031-032-039>041-046>048-054>057-064-280500-
   West Central Minnesota

CITY           SKY/WX    TMP DP  RH WIND       PRES   REMARKS
FERGUS FALLS   LGT SNOW   7   1  78 SE15      30.19F WCI -11
WHEATON        LGT SNOW   5   1  85 SE18      30.15F WCI -15
MORRIS         LGT SNOW   7   1  78 SE17      30.14F WCI -12
ALEXANDRIA     LGT SNOW   5   1  83 SE9       30.20F FOG     WCI  -9
ELBOW LAKE     LGT SNOW   6   2  84 SE12      30.16F WCI -10
WADENA         LGT SNOW   3   0  85 SE7       30.19S WCI  -9
GLENWOOD       LGT SNOW   5   1  85 SE10      30.19F WCI -10
APPLETON       LGT SNOW   7   3  85 SE17      30.15F WCI -12
BENSON         LGT SNOW   7   1  78 SE13      30.18F WCI  -9
ORTONVILLE     LGT SNOW   7   1  78 SE15      30.12F WCI -11
MADISON        LGT SNOW  10   7  85 SE17      30.14F WCI  -7
WILLMAR        LGT SNOW   7   1  78 SE15      30.22F WCI -11
$$
MNZ033>034-036-042>043-049>051-058-059-280500-
   Central Minnesota

CITY           SKY/WX    TMP DP  RH WIND       PRES   REMARKS
ST CLOUD       CLOUDY     8  -3  61 S7        30.27S WCI  -3
SAUK CENTRE    LGT SNOW   5   1  83 SE7       30.22F WCI  -7
PAYNESVILLE    LGT SNOW   3  -2  80 E6        30.25F WCI  -8
AITKIN         CLOUDY    10   0  61 S9        30.22F WCI  -2
PINE RIVER     CLOUDY     7  -2  66 SE7       30.24F WCI  -5
BRAINERD       CLOUDY     5  -3  69 S7        30.24F WCI  -7
STAPLES        LGT SNOW   3   0  85 SE3       30.20F
LONG PRAIRIE   LGT SNOW   5   1  85 SE9       30.21F WCI  -9
LITTLE FALLS   LGT SNOW   9   0  66 S7        30.25F WCI  -3
LITCHFIELD     LGT SNOW   5   0  78 SE7       30.26F WCI  -7
BUFFALO        CLOUDY     6  -3  64 SE3       30.31S
MAPLE LAKE     CLOUDY     7   0  70 SE6       30.29S WCI  -3
$$
MNZ037-044-045-052-053-280500-
   East Central Minnesota

CITY           SKY/WX    TMP DP  RH WIND       PRES   REMARKS
PRINCETON      CLOUDY     9   0  66 CALM      30.28S
MORA             N/A    N/A N/A N/A MISG        N/A
CAMBRIDGE      CLOUDY    10   0  61 S3        30.28S
RUSH CITY      CLOUDY     8  -1  68 S3        30.30S
MOOSE LAKE     CLOUDY     7  -2  66 CALM      30.25F
HINCKLEY       CLOUDY     9   0  66 CALM      30.29S
CLOQUET        CLOUDY     5  -4  66 CALM      30.25S
MCGREGOR       CLOUDY     9   0  66 S5        30.26S WCI   0
$$
MNZ071>073-080-081-089-090-097-098-280500-
   Southwest Minnesota

CITY           SKY/WX    TMP DP  RH WIND       PRES   REMARKS
MONTEVIDEO     LGT SNOW   5   1  85 S16       30.18F WCI -14
GRANITE FALLS  LGT SNOW   6   1  82 E13G20    30.19F WCI -11
CANBY          CLOUDY    13   8  79 SE12      30.12F WCI  -1
MARSHALL       MOCLDY    10   1  67 SE17      30.12F WCI  -7
REDWOOD FALLS  CLOUDY     4   0  83 SE15      30.21F WCI -14
OLIVIA         CLOUDY     5   1  85 SE13      30.22F WCI -12
PIPESTONE      CLOUDY    12   7  79 S12G17    30.07F WCI  -2
WINDOM         CLOUDY     9   0  66 SE14      30.17F WCI  -8
WORTHINGTON    CLOUDY     9   3  78 SE15G23   30.12F WCI  -8
JACKSON        CLOUDY     9   0  66 S14       30.18F WCI  -8
TRACY          CLOUDY    11   3  71 S15       30.14F WCI  -5
SLAYTON        CLOUDY    10   4  77 SE17      30.12F WCI  -8
$$
MNZ065>067-074>077-082>085-091>093-280500-
   South Central Minnesota

CITY           SKY/WX    TMP DP  RH WIND       PRES   REMARKS
MANKATO        CLOUDY     5  -2  72 SE6       30.26F WCI  -6
NEW ULM        LGT SNOW   1   0  92 SE8       30.26F VSB 1   WCI -12
ST JAMES       FLURRIES   7   0  72 SE9       30.25F WCI  -7
FAIRMONT       CLOUDY     7   0  72 S14       30.23F WCI -10
GLENCOE        LGT SNOW   6  -1  74 SE8       30.27F WCI  -7
FARIBAULT      CLOUDY     7  -2  66 SE6       30.29S WCI  -3
OWATONNA       CLOUDY     7  -4  61 SE8       30.27S WCI  -6
WASECA         CLOUDY     7  -4  61 SE6       30.29S WCI  -3
ALBERT LEA     CLOUDY     9   0  66 S12       30.26F WCI  -6
$$
MNZ078>079-086>088-094>096-280500-
   Southeast Minnesota

CITY           SKY/WX    TMP DP  RH WIND       PRES   REMARKS
ROCHESTER      CLOUDY     7  -1  70 S10       30.27F WCI  -8
RED WING       CLOUDY    10   0  61 SE6       30.32S WCI   1
STANTON        MOCLDY     9  -1  65 S3        30.30S
DODGE CENTER   CLOUDY     9   1  72 S10       30.27F WCI  -6
WINONA         MOCLDY    10   3  72 CALM      30.36F
AUSTIN         CLOUDY     7   0  72 S10       30.27F WCI  -8
PRESTON        CLOUDY     7   0  74 S5        30.29S WCI  -2
$$
ABBREVIATIONS USED IN REMARKS
   TC - TEMPERATURES IN CELSIUS
  WCI - WIND CHILL INDEX
   HX - HEAT INDEX
  VSB - VISIBILITY
$$


USA.gov is the U.S. government's official web portal to all federal, state and local government web resources and services.